Location: Madrid
(40.4000°N, 3.6830°W)
Time: 18:13:15
(UTC+02:00)

ISS - Pass Details

Date: 14 August 2017
Orbit: 401 x 408 km, 51.6° (Epoch: 19 August)

Event Time Altitude Azimuth Distance (km) Brightness Sun altitude
Rises 21:50:45 0° 295° (WNW) 2,314 2.7 -7.4°
Reaches altitude 10° 21:53:06 10° 280° (W) 1,451 0.4 -7.8°
Maximum altitude 21:55:42 22° 227° (SW) 924 -1.8 -8.3°
Drops below altitude 10° 21:58:17 10° 173° (S) 1,442 -1.4 -8.7°
Enters shadow 21:59:30 - 164° (SSE) 1,872 -0.9 -8.9°
